Вернуться в каталог

STARLINK-32254

АктивенСвязьVLEO
NORAD 60427·PAYLOAD·🇺🇸 United States

Запущен Aug 12, 2024 с Cape Canaveral Space Force Station

Loading…

Ближайшие Пролёты (ближайшие 24 часа)

TLE

СвежийSource: CelesTrak SupGP

Эпоха: Sep 14, 2026, 22:51 UTC

1 60427C 24144C   26257.95256944  .00034657  00000+0  10242-2 0  2572
2 60427  53.1579  55.3003 0001186  81.7564 313.9447 15.34364667    11

Отслеживайте STARLINK-32254 в реальном времени с AllMySat

Download on the App Store